Home   Weather   Schaffhausen   Past weeks

Flag for Switzerland Past Weather in Schaffhausen, Schaffhausen, Switzerland — Yesterday and Last 2 Weeks

Now
73 °F

Mild.


Feels Like: 76 °F
Forecast: 56 / 80 °F
Wind: 14 mph from Northeast

Location: Zurich-Kloten

Current Time: Aug 30, 2016 at 1:05:18 PM

Latest Report: Aug 30, 2016 at 12:00 PM


Visibility: N/A

Pressure: 30.14 "Hg

Humidity: 59%

Dew Point: 58 °F

Location of SchaffhausenLocation

Past Weather in Schaffhausen — Graph

°F

Schaffhausen Temperature Yesterday

Maximum temperature yesterday: 73 °F (at 2:00 AM)
Minimum temperature yesterday: 66 °F (at 11:00 AM)
Average temperature yesterday: 69 °F

High & Low Weather Summary for the Past Weeks

 TemperatureHumidityPressure
High90 °F (Aug 26, 5:00 PM)100% (Aug 26, 2:00 AM)30.40 "Hg (Aug 26, 2:00 AM)
Low49 °F (Aug 22, 5:00 AM)34% (Aug 26, 3:00 PM)29.79 "Hg (Aug 17, 7:00 PM)
Average69 °F74%30.06 "Hg
* Reported Aug 15 11:00 AM — Aug 30 11:00 AM, Schaffhausen, Weather by CustomWeather, © 2016

Note: Actual official high and low records may vary slightly from our data, if they occured in-between our weather recording intervals... More about our weather records

Advertising

Schaffhausen Weather History for the Previous 24 Hours

Scroll right to see more
 ConditionsComfort  
Time TempWeatherWind HumidityBarometerVisibility
11:00 AM
Tue, Aug 30
70 °FPassing clouds.15 mph61%30.16 "Hg16 mi
10:00 AM68 °FMild.8 mph67%30.17 "HgN/A
9:00 AM66 °FMild.6 mph71%30.17 "HgN/A
8:00 AM63 °FMild.6 mph74%30.17 "HgN/A
7:00 AM62 °FCool.6 mph79%30.17 "HgN/A
6:00 AM62 °FCool.5 mph77%30.16 "HgN/A
5:00 AM62 °FPassing clouds.7 mph75%30.16 "Hg12 mi
4:00 AM61 °FCool.7 mph83%30.17 "HgN/A
3:00 AM60 °FCool.3 mph86%30.17 "HgN/A
2:00 AM62 °FPassing clouds.2 mph83%30.19 "Hg12 mi
1:00 AM64 °FMild.1 mph80%30.19 "HgN/A
12:00 AM66 °FMild.1 mph70%30.18 "HgN/A
11:00 PM
Mon, Aug 29
68 °FOvercast.2 mph60%30.16 "Hg12 mi
10:00 PM68 °FMild.1 mph60%30.15 "HgN/A
9:00 PM67 °FMild.3 mph65%30.14 "HgN/A
8:00 PM69 °FOvercast.9 mph62%30.11 "Hg16 mi
7:00 PM70 °FMild.6 mph68%30.10 "HgN/A
6:00 PM69 °FMild.6 mph66%30.11 "HgN/A
5:00 PM71 °FOvercast.9 mph57%30.10 "Hg16 mi
4:00 PM72 °FMild.8 mph60%30.10 "HgN/A
3:00 PM71 °FMild.8 mph65%30.11 "HgN/A
2:00 PM70 °FOvercast.7 mph69%30.11 "Hg16 mi
1:00 PM68 °FMild.3 mph84%30.13 "HgN/A
Weather by CustomWeather, © 2016

See weather overviewHow to use our weather pages